Regional Weather Roundup
Issued by NWS

Home | Current Version | Previous Version | Text Only | Print | Product List | Glossary Off
Versions: 1 2 3 4 5 6 7 8 9 10 11 12 13 14 15 16 17 18 19 20 21 22 23 24 25 26 27 28 29 30 31 32 33 34 35 36 37 38 39 40 41 42 43 44 45 46 47 48 49 50

000
ASUS43 KDMX 250101
RWRIA

WEATHER ROUNDUP FOR IOWA
NATIONAL WEATHER SERVICE DES MOINES IA
700 PM CST SAT FEB 24 2018

NOTE: "FAIR" INDICATES FEW OR NO CLOUDS BELOW 12,000 FEET WITH NO
SIGNIFICANT WEATHER AND/OR OBSTRUCTIONS TO VISIBILITY.

* - THESE STATIONS ARE NOT NWS STATIONS...THUS NOT UNDER NWS
QUALITY CONTROL.  THEY ALSO DO NOT REPORT WEATHER SUCH
AS PRECIPITATION OR FOG.

IAZ001>003-012>014-020>022-031>034-043>046-250200-
   NORTHWEST IOWA

CITY           SKY/WX    TMP DP  RH WIND       PRES   REMARKS
CARROLL *      CLOUDY    28  27  93 W14       29.66S WCI  17
CHEROKEE *     FLURRIES  24  22  94 W12       29.66S WCI  12
DENISON *      CLOUDY    27  25  93 W9        29.70R WCI  17
LE MARS *      CLOUDY    23  21  93 SW5       29.67R WCI  17
ORANGE CITY *  CLOUDY    21  21 100 W7        29.65R WCI  13
SHELDON *      CLOUDY    19  19 100 W10       29.63R WCI   8
SIOUX CITY     LGT SNOW  24  21  88 SW3       29.69R FOG
SPENCER        CLOUDY    22  19  89 W8        29.63R FOG     WCI  12
STORM LAKE *   CLOUDY    23  21  93 W14       29.64S WCI  11
$$

IAZ055>058-069>071-079>083-090>094-250200-
   SOUTHWEST IOWA

CITY           SKY/WX    TMP DP  RH WIND       PRES   REMARKS
ATLANTIC *     CLOUDY    30  28  93 W16       29.71R WCI  19
AUDUBON *      CLOUDY    28  25  86 W7        29.69R WCI  21
CLARINDA *     CLOUDY    30  30 100 W13       29.77R WCI  20
COUNCIL BLFS * CLOUDY    28  28 100 W13G20    29.73R WCI  18
CRESTON *      CLOUDY    30  28  93 W17G25    29.70R WCI  18
LAMONI         CLOUDY    32  30  92 W14       29.68R WCI  22
RED OAK *      CLOUDY    30  28  93 W13       29.74R WCI  20
SHENANDOAH *   CLOUDY    30  28  93 W10G17    29.77R WCI  21
$$

IAZ047>049-059>061-072>074-084-250200-
   CENTRAL IOWA

CITY           SKY/WX    TMP DP  RH WIND       PRES   REMARKS
AMES           CLOUDY    32  30  92 W8        29.62S WCI  25
ANKENY *       CLOUDY    32  32 100 W12G21    29.65R WCI  23
BOONE *        LGT SNOW  32  32 100 W12       29.62R WCI  23
CHARITON *     CLOUDY    34  34 100 W9        29.64S WCI  26
DES MOINES     FLURRIES  33  31  92 W10       29.64R WCI  25
GRINNELL*      LGT SNOW  33  32  98 W10       29.62F WCI  25
KNOXVILLE *    LGT RAIN  34  34 100 SW8       29.63S WCI  27
MARSHALLTOWN   CLOUDY    32  32 100 W8        29.59F WCI  25
NEWTON *       LGT SNOW  32  32 100 SW9       29.63S WCI  24
PELLA *        LGT SNOW  33  33  98 W8        29.65R WCI  26
PERRY *        FLURRIES  31  31  99 W15       29.66R WCI  21
$$

IAZ004>006-015-016-023>025-035-036-250200-
   NORTH CENTRAL IOWA

CITY           SKY/WX    TMP DP  RH WIND       PRES   REMARKS
CLARION *      CLOUDY    32  32 100 SW16      29.60S FOG     WCI  21
ESTHERVILLE    CLOUDY    22  19  89 W8        29.60S FOG     WCI  12
FORT DODGE *   FLURRIES  28  27  96 W14       29.63S WCI  17
MASON CITY     LGT SNOW  32  32 100 S7        29.58F VSB 1   WCI  26
FOREST CITY *  LGT SNOW  32  32 100 SW5       29.57F WCI  27
WEBSTER CITY * LGT SNOW  32  32 100 SW16      29.60R WCI  21
IOWA FALLS *   FLURRIES  33  32  97 W8        29.59F WCI  26
$$

IAZ007>011-017>019-026>030-037>042-050>054-066-250200-
   NORTHEAST IOWA

CITY           SKY/WX    TMP DP  RH WIND       PRES   REMARKS
CEDAR RAPIDS   LGT RAIN  37  30  75 S3        29.56F
CHARLES CITY * LGT SNOW  34  34 100 SW6       29.58R VSB 1   WCI  29
CLINTON *      RAIN      40  39  97 E14       29.58F FOG     WCI  32
DECORAH *      LGT RAIN  34  34 100 SE9G20    29.55F WCI  26
DUBUQUE        MIX PCPN  36  34  92 SE20      29.56F FOG     WCI  25
MONTICELLO *   MIX PCPN  37  37 100 SE12      29.55F WCI  30
OELWEIN *      LGT RAIN  34  34 100 S12       29.58R WCI  25
WATERLOO       LGT SNOW  32  32 100 SW8       29.60R FOG     WCI  25
$$

IAZ064-065-067-068-078-250200-
   EAST CENTRAL IOWA

CITY           SKY/WX    TMP DP  RH WIND       PRES   REMARKS
DAVENPORT      LGT RAIN  42  40  92 SE13      29.58F FOG
IOWA CITY      LGT RAIN  40  38  93 SE5       29.58F FOG
MT. PLEASANT * LGT RAIN  39  39 100 SW6       29.58F WCI  35
MUSCATINE *    MIX PCPN  43  41  93 SE6       29.58F
QUAD CITIES    LGT RAIN  43  43 100 E9        29.56F FOG
$$

IAZ062-063-075>077-085>089-095>099-250200-
   SOUTHEAST IOWA

CITY           SKY/WX    TMP DP  RH WIND       PRES   REMARKS
BURLINGTON     FOG       43  43 100 S8        29.56F VSB 1/4
FAIRFIELD *    CLOUDY    39  39 100 W15       29.61R FOG     WCI  31
FORT MADISON * FOG       43  43 100 S7        29.58F VSB 1/4
KEOKUK *       MIX PCPN  45  45 100 SW6       29.57F VSB 1/2
OSKALOOSA *    RAIN      35  34  99 W12       29.63S WCI  26
OTTUMWA        LGT RAIN  37  36  96 W9        29.62R WCI  30
WASHINGTON *   LGT RAIN  39  39 100 SW8       29.59S WCI  34
$$

ABBREVIATIONS USED IN REMARKS
   TC - TEMPERATURES IN CELSIUS
  WCI - WIND CHILL INDEX
   HX - HEAT INDEX
  VSB - VISIBILITY
$$




USA.gov is the U.S. government's official web portal to all federal, state and local government web resources and services.